Regional Weather Roundup
Issued by NWS Cleveland, OH

Home | Current Version | Previous Version | Graphics & Text | Print | Product List | Glossary On
Versions: 1 2 3 4 5 6 7 8 9 10 11 12 13 14 15 16 17 18 19 20 21 22 23 24 25 26 27 28 29 30 31 32 33 34 35 36 37 38 39 40 41 42 43 44 45 46 47 48 49 50
000
ASUS41 KCLE 301200
RWRCLE
OHIO REGIONAL WEATHER ROUNDUP
NATIONAL WEATHER SERVICE WILMINGTON, OH
800 AM EDT SUN AUG 30 2015

NOTE: "FAIR" INDICATES FEW OR NO CLOUDS BELOW 12,000 FEET WITH NO
SIGNIFICANT WEATHER AND/OR OBSTRUCTIONS TO VISIBILITY.

OHZ001>008-015>018-024>027-034-035-043-044-301300-
   NORTHWEST OHIO

CITY           SKY/WX    TMP DP  RH WIND       PRES   REMARKS
DEFIANCE       MOCLDY    69  66  90 CALM      30.06S FOG
FINDLAY        PTSUNNY   69  66  90 SE5       30.07R
TOLEDO EXPRESS CLOUDY    68  67  96 CALM      30.07R FOG
TOLEDO EXEC    LGT RAIN  69  66  90 S3        30.08S FOG
LIMA           CLOUDY    68  66  93 S7        30.09R
$$

OHZ009>014-019>023-028>033-038-089-301300-
   NORTHEAST OHIO

CITY           SKY/WX    TMP DP  RH WIND       PRES   REMARKS
CLE-HOPKINS    CLOUDY    68  66  93 SW3       30.11R
CLE-LAKEFRONT  CLOUDY    70  66  87 S6        30.08R
CUY CO. ARPT   CLOUDY    68  66  94 S6        30.10R
LORAIN-ELYRIA  CLOUDY    67  66  97 CALM      30.11R FOG
ASHTABULA      CLOUDY    66  66 100 S7        30.10S FOG
AKRON-CANTON   CLOUDY    67  65  93 S3        30.12R FOG
WOOSTER        NOT AVBL
MANSFIELD      CLOUDY    68  67  96 S7        30.11R
YOUNGSTOWN     LGT RAIN  66  65  96 SE5       30.12R FOG
$$

OHZ042-051>053-060>062-070>072-077>081-301300-
  SOUTHWEST OHIO

CITY           SKY/WX    TMP DP  RH WIND       PRES   REMARKS
CINC-COVINGTON MOCLDY    67  66  97 S3        30.11R
CINC-LUNKEN    FOG       65  65 100 CALM      30.11S VSB 1
HAMILTON       MOCLDY    69  67  93 CALM      30.11R
DAYTON         NOT AVBL
WRIGHT-PAT AFB NOT AVBL
DAYTON GENERAL PTSUNNY   68  65  90 S7        30.10R
WILMINGTON     MOSUNNY   67  65  93 S5        30.12R FOG
$$

OHZ036-037-039>041-045>050-054>059-063>069-073>076-082>088-301300-
  CENTRAL AND SOUTHEAST OHIO

CITY           SKY/WX    TMP DP  RH WIND       PRES   REMARKS
COLUMBUS       RAIN      68  67  96 CALM      30.11R
OSU AIRPORT    LGT RAIN  68  66  93 S6        30.11R
BOLTON FIELD   MOSUNNY   66  66 100 CALM      30.13R
RICKENBACK AFB NOT AVBL
NEWARK         PTSUNNY   66  65  96 CALM      30.12R FOG
MARION         CLOUDY    68  65  90 S6        30.10R FOG
LANCASTER      PTSUNNY   67  65  93 CALM      30.12R FOG
ZANESVILLE     MOSUNNY   67  64  90 CALM      30.13R FOG
NEW PHILLY     PTSUNNY   67  66  97 CALM      30.13R FOG
$$



USA.gov is the U.S. government's official web portal to all federal, state and local government web resources and services.